Volver al catálogo

ATLAS 5 CENTAUR DEB

LostHEO
NORAD 46851·DEBRIS·🇺🇸 United States

Lanzado Oct 17, 2018 desde Cape Canaveral Space Force Station

Loading…

Próximos Pases (próximas 24 horas)

TLE

ObsoletoSource: Space-Track

Época: Jan 16, 2021, 19:40 UTC

1 46851U 18079DG  21016.82004696 -.00000086  00000-0  00000+0 0  9998
2 46851  11.1242 241.6438 4031806 326.6431  13.4583  1.96853897  1508

Sigue ATLAS 5 CENTAUR DEB en tiempo real con AllMySat

Download on the App Store